Regional Weather Roundup
Issued by NWS

Home | Current Version | Previous Version | Text Only | Print | Product List | Glossary Off
Versions: 1 2 3 4 5 6 7 8 9 10 11 12 13 14 15 16 17 18 19 20 21 22 23 24 25 26 27

000
ASUS45 KBOI 251310
RWRID

IDAHO REGIONAL WEATHER ROUNDUP
NATIONAL WEATHER SERVICE BOISE ID
700 AM MDT SUN JUN 25 2017

NOTE: "FAIR" INDICATES FEW OR NO CLOUDS BELOW 12000 FEET
WITH NO SIGNIFICANT WEATHER AND/OR OBSTRUCTIONS TO VISIBILITY

IDZ012-014-251400-
SOUTHWEST IDAHO


CITY           SKY/WX    TMP DP  RH WIND       PRES   REMARKS
BOISE          CLEAR     63  41  44 SE13      30.12R
CALDWELL       MOCLDY    53  48  83 E3        30.11R
MOUNTAIN HOME  CLEAR     55  39  54 E10       30.13R
$$

IDZ016-017-251400-
SOUTHCENTRAL IDAHO


CITY           SKY/WX    TMP DP  RH WIND       PRES   REMARKS
BURLEY         CLEAR     51  41  68 CALM      30.20S
JEROME         CLEAR     58  39  49 E9        30.20R
TWIN FALLS     CLEAR     57  36  45 S10       30.19S
$$

IDZ019>023-251400-
SOUTHEAST IDAHO


CITY           SKY/WX    TMP DP  RH WIND       PRES   REMARKS
IDAHO FALLS    SUNNY     50  45  83 N7        30.28R
POCATELLO      CLEAR     50  45  83 CALM      30.26R
REXBURG        SUNNY     51  42  71 NE5       30.29R
$$

IDZ006-010-011-018-031-032-251400-
CENTRAL IDAHO MOUNTAINS


CITY           SKY/WX    TMP DP  RH WIND       PRES   REMARKS
MCCALL         CLEAR     47  38  71 CALM      30.24S
HAILEY         CLEAR     52  41  66 W9        30.30F
STANLEY          N/A     37  34  89 CALM      30.39R
SALMON         CLEAR     48  39  71 CALM      30.29R
CHALLIS        CLEAR     52  37  56 CALM      30.31R
$$

IDZ002-004-006-007-026-251400-
NORTHERN IDAHO


CITY           SKY/WX    TMP DP  RH WIND       PRES   REMARKS
LEWISTON       CLEAR     61  48  62 S3        30.10R
LOWELL           N/A     52  49  89 CALM      30.19R
COEUR D`ALENE  NOT AVBL
MULLAN PASS    CLEAR     56  32  40 SE10      30.33S
$$




USA.gov is the U.S. government's official web portal to all federal, state and local government web resources and services.